Time,TemperatureF,DewpointF,PressureIn,WindDirection,WindDirectionDegrees,WindSpeedMPH,WindSpeedGustMPH,Humidity,HourlyPrecipIn,Conditions,Clouds,dailyrainin,SolarRadiationWatts/m^2,SoftwareType,DateUTC
2013-09-25 00:02:00,39.7,37.6,29.82,NE,51,2.3,2.3,92,0.17,RA,,0.03,0.0,WeatherDisplay:10.37,2013-09-25 08:02:00,
2013-09-25 00:07:00,39.6,37.7,29.82,NE,34,3.5,3.5,93,0.15,RA,,0.04,0.0,WeatherDisplay:10.37,2013-09-25 08:07:00,
2013-09-25 00:12:00,39.6,37.7,29.81,NNE,16,6.0,6.0,93,0.16,RA,,0.05,0.0,WeatherDisplay:10.37,2013-09-25 08:12:00,
2013-09-25 00:17:00,39.6,37.7,29.81,NNW,346,3.5,3.5,93,0.00,RA,,0.06,0.0,WeatherDisplay:10.37,2013-09-25 08:17:00,
2013-09-25 00:22:00,39.6,38.0,29.81,NNW,341,3.5,3.5,94,0.00,RA,,0.07,0.0,WeatherDisplay:10.37,2013-09-25 08:22:00,
2013-09-25 00:27:00,39.6,38.0,29.81,NNW,341,1.2,1.2,94,0.00,RA,,0.08,0.0,WeatherDisplay:10.37,2013-09-25 08:27:00,
2013-09-25 00:32:00,39.6,38.0,29.80,North,355,3.5,3.5,94,0.15,RA,,0.08,0.0,WeatherDisplay:10.37,2013-09-25 08:32:00,
2013-09-25 00:37:00,39.6,38.0,29.80,NE,43,1.2,0.0,94,0.15,RA,,0.09,0.0,WeatherDisplay:10.37,2013-09-25 08:37:00,
2013-09-25 00:42:00,39.7,38.1,29.80,NE,43,1.2,1.2,94,0.15,RA,,0.10,0.0,WeatherDisplay:10.37,2013-09-25 08:42:00,
2013-09-25 00:47:00,39.7,38.1,29.80,North,5,1.2,0.0,94,0.15,RA,,0.11,0.0,WeatherDisplay:10.37,2013-09-25 08:47:00,
2013-09-25 00:52:00,39.8,38.5,29.79,North,5,1.2,0.0,95,0.13,RA,,0.12,0.0,WeatherDisplay:10.37,2013-09-25 08:52:00,
2013-09-25 00:57:00,39.8,38.5,29.79,NNE,20,4.6,4.6,95,0.13,RA,,0.12,0.0,WeatherDisplay:10.37,2013-09-25 08:57:00,
2013-09-25 01:02:00,39.9,38.6,29.78,NNE,28,4.6,4.6,95,0.19,-RA,,0.22,0.0,WeatherDisplay:10.37,2013-09-25 09:02:00,
2013-09-25 01:07:00,40.0,38.7,29.78,NNE,12,3.5,3.5,95,0.19,-RA,,0.23,0.0,WeatherDisplay:10.37,2013-09-25 09:07:00,
2013-09-25 01:12:00,40.0,38.7,29.78,NNE,13,3.5,3.5,95,0.18,-RA,,0.23,0.0,WeatherDisplay:10.37,2013-09-25 09:12:00,
2013-09-25 01:17:00,40.0,38.7,29.77,North,360,2.0,2.0,95,0.18,-RA,,0.24,0.0,WeatherDisplay:10.37,2013-09-25 09:17:00,
2013-09-25 01:22:00,40.0,38.7,29.77,NE,49,1.2,1.2,95,0.18,-RA,,0.25,0.0,WeatherDisplay:10.37,2013-09-25 09:22:00,
2013-09-25 01:27:00,40.1,38.8,29.76,NNW,342,3.5,3.5,95,0.18,-RA,,0.26,0.0,WeatherDisplay:10.37,2013-09-25 09:27:00,
2013-09-25 01:32:00,40.1,38.8,29.76,NE,38,3.5,3.5,95,0.19,-RA,,0.27,0.0,WeatherDisplay:10.37,2013-09-25 09:32:00,
2013-09-25 01:37:00,40.1,38.8,29.76,NE,40,2.3,2.3,95,0.19,-RA,,0.28,0.0,WeatherDisplay:10.37,2013-09-25 09:37:00,
2013-09-25 01:42:00,40.2,38.9,29.75,NNE,21,4.6,4.6,95,0.19,-RA,,0.29,0.0,WeatherDisplay:10.37,2013-09-25 09:42:00,
2013-09-25 01:47:00,40.3,39.3,29.75,NNE,24,4.0,4.0,96,0.19,-RA,,0.30,0.0,WeatherDisplay:10.37,2013-09-25 09:47:00,
2013-09-25 01:52:00,40.4,39.4,29.75,East,87,3.5,3.5,96,0.20,-RA,,0.31,0.0,WeatherDisplay:10.37,2013-09-25 09:52:00,
2013-09-25 01:57:00,40.5,39.4,29.74,NE,37,2.3,2.3,96,0.20,-RA,,0.32,0.0,WeatherDisplay:10.37,2013-09-25 09:57:00,
2013-09-25 02:02:00,40.6,39.5,29.74,NE,37,3.5,3.5,96,0.21,-RA,,0.43,0.0,WeatherDisplay:10.37,2013-09-25 10:02:00,
2013-09-25 02:07:00,40.7,39.6,29.74,NE,46,2.3,2.3,96,0.21,-RA,,0.44,0.0,WeatherDisplay:10.37,2013-09-25 10:07:00,
2013-09-25 02:12:00,40.7,39.6,29.74,NE,36,2.3,2.3,96,0.22,-RA,,0.45,0.0,WeatherDisplay:10.37,2013-09-25 10:12:00,
2013-09-25 02:17:00,40.8,39.7,29.74,NE,39,3.0,3.0,96,0.23,RA,,0.47,0.0,WeatherDisplay:10.37,2013-09-25 10:17:00,
2013-09-25 02:22:00,40.9,39.8,29.73,NE,53,2.3,2.3,96,0.23,RA,,0.48,0.0,WeatherDisplay:10.37,2013-09-25 10:22:00,
2013-09-25 02:27:00,41.0,39.9,29.73,NNE,21,3.5,3.5,96,0.23,RA,,0.50,0.0,WeatherDisplay:10.37,2013-09-25 10:27:00,
2013-09-25 02:32:00,41.1,40.0,29.72,ENE,69,4.6,4.6,96,0.24,RA,,0.51,0.0,WeatherDisplay:10.37,2013-09-25 10:32:00,
2013-09-25 02:37:00,41.2,40.1,29.72,ENE,59,4.6,4.6,96,0.24,RA,,0.52,0.0,WeatherDisplay:10.37,2013-09-25 10:37:00,
2013-09-25 02:42:00,41.3,40.2,29.71,NE,56,3.5,3.5,96,0.24,RA,,0.53,0.0,WeatherDisplay:10.37,2013-09-25 10:42:00,
2013-09-25 02:47:00,41.4,40.3,29.71,ENE,61,6.0,6.0,96,0.24,RA,,0.54,0.0,WeatherDisplay:10.37,2013-09-25 10:47:00,
2013-09-25 02:52:00,41.5,40.4,29.70,NNE,26,3.5,3.5,96,0.24,RA,,0.55,0.0,WeatherDisplay:10.37,2013-09-25 10:52:00,
2013-09-25 02:57:00,41.5,40.4,29.70,NE,36,4.0,4.0,96,0.25,RA,,0.57,0.0,WeatherDisplay:10.37,2013-09-25 10:57:00,
2013-09-25 03:02:00,41.6,40.5,29.69,NE,40,4.0,4.0,96,0.19,RA,,0.62,0.0,WeatherDisplay:10.37,2013-09-25 11:02:00,
2013-09-25 03:07:00,41.6,40.5,29.68,ENE,61,4.6,4.6,96,0.19,RA,,0.63,0.0,WeatherDisplay:10.37,2013-09-25 11:07:00,
2013-09-25 03:12:00,41.6,40.5,29.68,NNE,21,3.0,3.0,96,0.18,RA,,0.63,0.0,WeatherDisplay:10.37,2013-09-25 11:12:00,
2013-09-25 03:17:00,41.8,40.7,29.67,North,350,3.5,3.5,96,0.17,RA,,0.64,0.0,WeatherDisplay:10.37,2013-09-25 11:17:00,
2013-09-25 03:22:00,41.8,40.7,29.66,NE,50,5.8,5.8,96,0.17,RA,,0.65,0.0,WeatherDisplay:10.37,2013-09-25 11:22:00,
2013-09-25 03:27:00,41.9,40.8,29.65,NNE,13,8.1,8.1,96,0.16,RA,,0.65,0.0,WeatherDisplay:10.37,2013-09-25 11:27:00,
2013-09-25 03:32:00,41.9,40.8,29.65,NE,36,5.0,5.0,96,0.15,-RA,,0.66,0.0,WeatherDisplay:10.37,2013-09-25 11:32:00,
2013-09-25 03:37:00,42.0,40.9,29.64,NE,34,6.9,6.9,96,0.15,-RA,,0.67,0.0,WeatherDisplay:10.37,2013-09-25 11:37:00,
2013-09-25 03:42:00,42.1,41.0,29.63,East,83,5.8,5.8,96,0.14,-RA,,0.67,0.0,WeatherDisplay:10.37,2013-09-25 11:42:00,
2013-09-25 03:47:00,42.2,41.4,29.62,NE,34,5.8,5.8,97,0.13,-RA,,0.67,0.0,WeatherDisplay:10.37,2013-09-25 11:47:00,
2013-09-25 03:52:00,42.3,41.5,29.62,ENE,59,5.8,5.8,97,0.12,-RA,,0.67,0.0,WeatherDisplay:10.37,2013-09-25 11:52:00,
2013-09-25 03:57:00,42.3,41.5,29.61,NE,38,3.5,3.5,97,0.11,-RA,,0.68,0.0,WeatherDisplay:10.37,2013-09-25 11:57:00,
2013-09-25 04:02:00,42.3,41.5,29.61,NE,45,4.6,4.6,97,0.10,-RA,,0.72,0.0,WeatherDisplay:10.37,2013-09-25 12:02:00,
2013-09-25 04:07:00,42.4,41.6,29.61,East,94,3.5,3.5,97,0.09,-RA,,0.72,0.0,WeatherDisplay:10.37,2013-09-25 12:07:00,
2013-09-25 04:12:00,42.4,41.3,29.61,NE,52,4.6,4.6,96,0.09,-RA,,0.72,0.0,WeatherDisplay:10.37,2013-09-25 12:12:00,
2013-09-25 04:17:00,42.5,41.4,29.61,NE,49,2.3,2.3,96,0.09,-RA,,0.73,0.0,WeatherDisplay:10.37,2013-09-25 12:17:00,
2013-09-25 04:22:00,42.5,41.4,29.60,NE,40,4.0,4.0,96,0.08,-RA,,0.73,0.0,WeatherDisplay:10.37,2013-09-25 12:22:00,
2013-09-25 04:27:00,42.6,41.5,29.60,NNE,24,1.2,1.2,96,0.09,-RA,,0.74,0.0,WeatherDisplay:10.37,2013-09-25 12:27:00,
2013-09-25 04:32:00,42.6,41.5,29.59,ENE,60,3.5,3.5,96,0.08,-RA,,0.75,0.0,WeatherDisplay:10.37,2013-09-25 12:32:00,
2013-09-25 04:37:00,42.6,41.5,29.59,ENE,67,4.6,4.6,96,0.08,-RA,,0.76,0.0,WeatherDisplay:10.37,2013-09-25 12:37:00,
2013-09-25 04:42:00,42.6,41.5,29.59,East,91,3.0,3.0,96,0.10,-RA,,0.77,0.0,WeatherDisplay:10.37,2013-09-25 12:42:00,
2013-09-25 04:47:00,42.7,41.6,29.59,ENE,76,2.3,2.3,96,0.11,-RA,,0.78,0.0,WeatherDisplay:10.37,2013-09-25 12:47:00,
2013-09-25 04:52:00,42.7,41.6,29.58,East,84,2.3,2.3,96,0.11,-RA,,0.78,0.0,WeatherDisplay:10.37,2013-09-25 12:52:00,
2013-09-25 04:57:00,42.7,41.6,29.58,East,98,5.8,5.8,96,0.11,-RA,,0.79,0.0,WeatherDisplay:10.37,2013-09-25 12:57:00,
2013-09-25 05:02:00,42.7,41.6,29.57,East,86,4.6,4.6,96,0.15,-RA,,0.87,0.0,WeatherDisplay:10.37,2013-09-25 13:02:00,
2013-09-25 05:07:00,42.7,41.6,29.57,NE,38,4.6,4.6,96,0.16,-RA,,0.89,0.0,WeatherDisplay:10.37,2013-09-25 13:07:00,
2013-09-25 05:12:00,42.8,41.7,29.55,ENE,78,4.6,4.6,96,0.18,-RA,,0.90,0.0,WeatherDisplay:10.37,2013-09-25 13:12:00,
2013-09-25 05:17:00,42.8,41.7,29.54,East,87,8.1,8.1,96,0.18,-RA,,0.91,0.0,WeatherDisplay:10.37,2013-09-25 13:17:00,
2013-09-25 05:22:00,42.8,41.7,29.54,NNE,32,2.3,2.3,96,0.19,-RA,,0.92,0.0,WeatherDisplay:10.37,2013-09-25 13:22:00,
2013-09-25 05:27:00,42.9,41.8,29.53,ENE,67,6.9,6.9,96,0.19,-RA,,0.93,0.0,WeatherDisplay:10.37,2013-09-25 13:27:00,
2013-09-25 05:32:00,42.9,41.8,29.52,ENE,65,6.9,6.9,96,0.19,-RA,,0.93,0.0,WeatherDisplay:10.37,2013-09-25 13:32:00,
2013-09-25 05:37:00,42.9,41.8,29.52,ENE,69,5.8,5.8,96,0.19,-RA,,0.94,0.0,WeatherDisplay:10.37,2013-09-25 13:37:00,
2013-09-25 05:42:00,43.0,41.9,29.52,NNE,22,6.9,6.9,96,0.18,-RA,,0.95,0.0,WeatherDisplay:10.37,2013-09-25 13:42:00,
2013-09-25 05:47:00,43.0,41.9,29.53,NNE,24,5.8,5.8,96,0.17,-RA,,0.95,0.0,WeatherDisplay:10.37,2013-09-25 13:47:00,
2013-09-25 05:52:00,43.1,42.0,29.54,NE,36,3.5,3.5,96,0.18,-RA,,0.96,0.0,WeatherDisplay:10.37,2013-09-25 13:52:00,
2013-09-25 05:57:00,43.1,42.0,29.55,NE,40,4.6,4.6,96,0.17,-RA,,0.97,0.0,WeatherDisplay:10.37,2013-09-25 13:57:00,
2013-09-25 06:02:00,43.1,42.0,29.55,NE,36,2.3,2.3,96,0.17,RA,,1.04,0.0,WeatherDisplay:10.37,2013-09-25 14:02:00,
2013-09-25 06:07:00,43.2,42.1,29.54,NE,50,4.6,4.6,96,0.18,RA,,1.06,0.0,WeatherDisplay:10.37,2013-09-25 14:07:00,
2013-09-25 06:12:00,43.2,42.1,29.54,NNE,22,3.5,3.5,96,0.17,RA,,1.07,0.0,WeatherDisplay:10.37,2013-09-25 14:12:00,
2013-09-25 06:17:00,43.2,42.1,29.53,NE,46,4.6,4.6,96,0.17,RA,,1.08,0.0,WeatherDisplay:10.37,2013-09-25 14:17:00,
2013-09-25 06:22:00,43.2,42.1,29.52,NE,38,3.5,3.5,96,0.17,RA,,1.09,0.0,WeatherDisplay:10.37,2013-09-25 14:22:00,
2013-09-25 06:27:00,43.2,42.1,29.51,NNE,21,5.8,5.8,96,0.17,RA,,1.10,0.0,WeatherDisplay:10.37,2013-09-25 14:27:00,
2013-09-25 06:32:00,43.2,42.1,29.50,East,95,3.5,3.5,96,0.18,RA,,1.12,0.0,WeatherDisplay:10.37,2013-09-25 14:32:00,
2013-09-25 06:37:00,43.2,42.1,29.49,NE,42,3.5,3.5,96,0.18,RA,,1.13,0.0,WeatherDisplay:10.37,2013-09-25 14:37:00,
2013-09-25 06:42:00,43.2,42.1,29.49,ENE,67,4.6,4.6,96,0.19,RA,,1.14,0.0,WeatherDisplay:10.37,2013-09-25 14:42:00,
2013-09-25 06:47:00,43.2,42.1,29.50,ESE,107,3.5,3.5,96,0.20,RA,,1.15,0.0,WeatherDisplay:10.37,2013-09-25 14:47:00,
2013-09-25 06:52:00,43.2,42.1,29.50,NE,36,5.8,5.8,96,0.20,RA,,1.16,0.0,WeatherDisplay:10.37,2013-09-25 14:52:00,
2013-09-25 06:57:00,43.2,42.1,29.50,NE,38,3.5,3.5,96,0.22,RA,,1.18,0.0,WeatherDisplay:10.37,2013-09-25 14:57:00,
2013-09-25 07:02:00,43.3,42.2,29.50,NE,40,3.5,3.5,96,0.25,RA,,1.29,0.0,WeatherDisplay:10.37,2013-09-25 15:02:00,
2013-09-25 07:07:00,43.3,42.2,29.50,NE,38,4.6,4.6,96,0.25,RA,,1.31,0.0,WeatherDisplay:10.37,2013-09-25 15:07:00,
2013-09-25 07:12:00,43.3,42.2,29.49,NNE,18,2.3,2.3,96,0.25,RA,,1.32,0.0,WeatherDisplay:10.37,2013-09-25 15:12:00,
2013-09-25 07:17:00,43.3,42.2,29.49,North,360,8.1,8.1,96,0.25,RA,,1.33,0.0,WeatherDisplay:10.37,2013-09-25 15:17:00,
2013-09-25 07:22:00,43.3,42.2,29.50,NE,47,4.6,4.6,96,0.24,RA,,1.33,0.0,WeatherDisplay:10.37,2013-09-25 15:22:00,
2013-09-25 07:27:00,43.3,42.2,29.49,NE,40,3.5,3.5,96,0.24,RA,,1.34,0.0,WeatherDisplay:10.37,2013-09-25 15:27:00,
2013-09-25 07:32:00,43.3,42.2,29.49,NNE,17,5.8,5.8,96,0.23,RA,,1.35,0.0,WeatherDisplay:10.37,2013-09-25 15:32:00,
2013-09-25 07:37:00,43.3,42.2,29.48,NE,35,5.8,5.8,96,0.24,RA,,1.36,0.0,WeatherDisplay:10.37,2013-09-25 15:37:00,
2013-09-25 07:42:00,43.3,42.2,29.48,NE,56,2.3,2.3,96,0.23,RA,,1.37,0.0,WeatherDisplay:10.37,2013-09-25 15:42:00,
2013-09-25 07:47:00,43.3,42.2,29.48,NE,50,3.5,3.5,96,0.22,RA,,1.37,0.0,WeatherDisplay:10.37,2013-09-25 15:47:00,
2013-09-25 07:52:00,43.3,42.2,29.49,NE,49,2.3,2.3,96,0.22,RA,,1.38,0.0,WeatherDisplay:10.37,2013-09-25 15:52:00,
2013-09-25 07:57:00,43.3,42.2,29.48,NE,54,3.5,3.5,96,0.20,RA,,1.38,0.0,WeatherDisplay:10.37,2013-09-25 15:57:00,
2013-09-25 08:02:00,43.3,42.2,29.48,ENE,61,1.2,0.0,96,0.24,-RA,,1.53,0.0,WeatherDisplay:10.37,2013-09-25 16:02:00,
2013-09-25 08:07:00,43.2,42.1,29.47,NE,56,3.5,3.5,96,0.23,-RA,,1.54,0.0,WeatherDisplay:10.37,2013-09-25 16:07:00,
2013-09-25 08:12:00,43.2,42.1,29.47,East,94,2.3,2.3,96,0.22,-RA,,1.54,,WeatherDisplay:10.37,2013-09-25 16:12:00,
2013-09-25 08:17:00,43.2,42.1,29.47,East,96,2.3,2.3,96,0.22,-RA,,1.55,0.0,WeatherDisplay:10.37,2013-09-25 16:17:00,
2013-09-25 08:22:00,43.2,42.1,29.46,ENE,65,3.5,3.5,96,0.22,-RA,,1.55,0.0,WeatherDisplay:10.37,2013-09-25 16:22:00,
2013-09-25 08:27:00,43.2,42.1,29.47,ENE,67,3.5,3.5,96,0.22,-RA,,1.56,0.0,WeatherDisplay:10.37,2013-09-25 16:27:00,
2013-09-25 08:32:00,43.3,42.2,29.46,ENE,77,3.5,3.5,96,0.22,-RA,,1.56,0.0,WeatherDisplay:10.37,2013-09-25 16:32:00,
2013-09-25 08:37:00,43.3,42.2,29.46,NE,49,3.5,3.5,96,0.20,-RA,,1.56,0.0,WeatherDisplay:10.37,2013-09-25 16:37:00,
2013-09-25 08:42:00,43.4,42.3,29.45,ENE,62,3.5,3.5,96,0.19,-RA,,1.56,5.0,WeatherDisplay:10.37,2013-09-25 16:42:00,
2013-09-25 08:47:00,43.5,42.4,29.45,NE,35,5.0,5.0,96,0.19,-RA,,1.56,12.0,WeatherDisplay:10.37,2013-09-25 16:47:00,
2013-09-25 08:52:00,43.5,42.4,29.45,NE,42,3.5,3.5,96,0.18,-RA,,1.56,16.0,WeatherDisplay:10.37,2013-09-25 16:52:00,
2013-09-25 08:57:00,43.6,42.5,29.45,ESE,115,2.3,2.3,96,0.18,-RA,,1.56,18.0,WeatherDisplay:10.37,2013-09-25 16:57:00,
2013-09-25 09:02:00,43.6,42.5,29.45,NE,43,6.0,6.0,96,0.13,-RA,,1.66,14.0,WeatherDisplay:10.37,2013-09-25 17:02:00,
2013-09-25 09:07:00,43.7,42.6,29.45,NE,52,6.9,6.9,96,0.13,-RA,,1.66,16.0,WeatherDisplay:10.37,2013-09-25 17:07:00,
2013-09-25 09:12:00,43.8,42.7,29.45,NE,34,5.0,5.0,96,0.12,-RA,,1.66,19.0,WeatherDisplay:10.37,2013-09-25 17:12:00,
2013-09-25 09:17:00,43.8,42.7,29.45,NNE,16,2.3,2.3,96,0.12,-RA,,1.67,12.0,WeatherDisplay:10.37,2013-09-25 17:17:00,
2013-09-25 09:22:00,43.9,42.8,29.45,NNW,348,3.5,3.5,96,0.12,-RA,,1.67,12.0,WeatherDisplay:10.37,2013-09-25 17:22:00,
2013-09-25 09:27:00,44.0,42.9,29.45,NE,38,2.3,2.3,96,0.12,-RA,,1.68,16.0,WeatherDisplay:10.37,2013-09-25 17:27:00,
2013-09-25 09:32:00,44.0,42.9,29.45,NE,48,3.5,3.5,96,0.13,-RA,,1.69,19.0,WeatherDisplay:10.37,2013-09-25 17:32:00,
2013-09-25 09:37:00,44.0,42.9,29.45,NE,39,2.3,2.3,96,0.13,-RA,,1.69,30.0,WeatherDisplay:10.37,2013-09-25 17:37:00,
2013-09-25 09:42:00,44.1,43.0,29.45,ENE,70,3.5,3.5,96,0.14,-RA,,1.70,37.0,WeatherDisplay:10.37,2013-09-25 17:42:00,
2013-09-25 09:47:00,44.2,43.4,29.45,NNE,13,3.5,3.5,97,0.14,-RA,,1.70,35.0,WeatherDisplay:10.37,2013-09-25 17:47:00,
2013-09-25 09:52:00,44.2,43.1,29.45,ENE,77,3.5,3.5,96,0.14,-RA,,1.70,40.0,WeatherDisplay:10.37,2013-09-25 17:52:00,
2013-09-25 09:57:00,44.2,43.1,29.45,ENE,61,3.5,3.5,96,0.15,-RA,,1.71,44.0,WeatherDisplay:10.37,2013-09-25 17:57:00,
2013-09-25 10:03:00,44.3,43.2,29.44,East,82,3.5,3.5,96,0.10,-RA,,1.76,42.0,WeatherDisplay:10.37,2013-09-25 18:03:00,
2013-09-25 10:08:00,44.3,43.2,29.45,NE,51,2.3,2.3,96,0.10,-RA,,1.76,42.0,WeatherDisplay:10.37,2013-09-25 18:08:00,
2013-09-25 10:13:00,44.3,43.2,29.44,East,93,5.8,5.8,96,0.10,-RA,,1.76,53.0,WeatherDisplay:10.37,2013-09-25 18:13:00,
2013-09-25 10:18:00,44.5,43.4,29.44,ENE,61,3.5,3.5,96,0.09,-RA,,1.76,74.0,WeatherDisplay:10.37,2013-09-25 18:18:00,
2013-09-25 10:23:00,44.5,43.4,29.45,ENE,68,6.9,6.9,96,0.09,-RA,,1.76,58.0,WeatherDisplay:10.37,2013-09-25 18:23:00,
2013-09-25 10:28:00,44.6,43.8,29.45,East,90,4.6,4.6,97,0.09,-RA,,1.77,62.0,WeatherDisplay:10.37,2013-09-25 18:28:00,
2013-09-25 10:33:00,44.7,43.9,29.45,East,94,5.0,5.0,97,0.08,-RA,,1.77,72.0,WeatherDisplay:10.37,2013-09-25 18:33:00,
2013-09-25 10:38:00,44.8,44.0,29.45,NE,48,6.9,6.9,97,0.08,-RA,,1.77,72.0,WeatherDisplay:10.37,2013-09-25 18:38:00,
2013-09-25 10:43:00,44.8,43.7,29.45,East,82,6.9,6.9,96,0.07,-RA,,1.77,93.0,WeatherDisplay:10.37,2013-09-25 18:43:00,
2013-09-25 10:48:00,44.9,43.8,29.45,ENE,72,8.1,8.1,96,0.07,-RA,,1.77,88.0,WeatherDisplay:10.37,2013-09-25 18:48:00,
2013-09-25 10:53:00,44.8,43.7,29.45,ENE,75,6.9,6.9,96,0.07,-RA,,1.77,84.0,WeatherDisplay:10.37,2013-09-25 18:53:00,
2013-09-25 10:58:00,44.9,43.8,29.45,ENE,62,4.6,4.6,96,0.06,-RA,,1.77,74.0,WeatherDisplay:10.37,2013-09-25 18:58:00,
2013-09-25 11:03:00,44.8,43.7,29.46,NNE,30,4.6,4.6,96,0.06,RA,,1.82,84.0,WeatherDisplay:10.37,2013-09-25 19:03:00,
2013-09-25 11:08:00,44.9,43.8,29.46,NE,38,5.8,5.8,96,0.06,RA,,1.82,114.0,WeatherDisplay:10.37,2013-09-25 19:08:00,
2013-09-25 11:13:00,44.9,43.8,29.46,ENE,65,6.9,6.9,96,0.06,OVC,,1.82,70.0,WeatherDisplay:10.37,2013-09-25 19:13:00,
2013-09-25 11:18:00,44.9,43.8,29.47,NE,46,5.8,5.8,96,0.06,OVC,,1.82,97.0,WeatherDisplay:10.37,2013-09-25 19:18:00,
2013-09-25 11:23:00,44.9,43.8,29.47,ENE,77,3.5,3.5,96,0.06,OVC,,1.82,118.0,WeatherDisplay:10.37,2013-09-25 19:23:00,
2013-09-25 11:28:00,45.0,43.9,29.47,NE,38,4.6,4.6,96,0.05,OVC,,1.82,77.0,WeatherDisplay:10.37,2013-09-25 19:28:00,
2013-09-25 11:33:00,45.1,44.0,29.48,East,84,3.0,3.0,96,0.05,OVC,,1.82,81.0,WeatherDisplay:10.37,2013-09-25 19:33:00,
2013-09-25 11:38:00,45.1,44.0,29.48,ESE,119,2.3,2.3,96,0.05,OVC,,1.82,109.0,WeatherDisplay:10.37,2013-09-25 19:38:00,
2013-09-25 11:43:00,45.2,44.1,29.48,ESE,119,2.3,2.3,96,0.05,OVC,,1.82,128.0,WeatherDisplay:10.37,2013-09-25 19:43:00,
2013-09-25 11:48:00,45.4,44.3,29.48,ESE,114,2.3,2.3,96,0.05,OVC,,1.82,171.0,WeatherDisplay:10.37,2013-09-25 19:48:00,
2013-09-25 11:53:00,45.5,44.4,29.48,ESE,104,2.3,2.3,96,0.05,OVC,,1.82,139.0,WeatherDisplay:10.37,2013-09-25 19:53:00,
2013-09-25 11:58:00,45.7,44.6,29.49,SSE,148,3.5,3.5,96,0.05,OVC,,1.82,243.0,WeatherDisplay:10.37,2013-09-25 19:58:00,
2013-09-25 12:03:00,46.0,45.2,29.48,ESE,111,3.5,3.5,97,0.00,OVC,,1.82,192.0,WeatherDisplay:10.37,2013-09-25 20:03:00,
2013-09-25 12:08:00,46.2,45.1,29.48,ESE,111,1.2,0.0,96,0.00,OVC,,1.82,190.0,WeatherDisplay:10.37,2013-09-25 20:08:00,
2013-09-25 12:13:00,46.4,45.6,29.48,ESE,107,0.0,0.0,97,0.00,OVC,,1.82,163.0,WeatherDisplay:10.37,2013-09-25 20:13:00,
2013-09-25 12:18:00,46.6,45.5,29.48,ESE,107,2.3,2.3,96,0.00,OVC,,1.82,160.0,WeatherDisplay:10.37,2013-09-25 20:18:00,
2013-09-25 12:23:00,46.8,45.7,29.48,West,271,1.2,0.0,96,0.00,OVC,,1.82,176.0,WeatherDisplay:10.37,2013-09-25 20:23:00,
2013-09-25 12:28:00,47.1,46.0,29.49,West,271,0.0,0.0,96,0.00,OVC,,1.82,169.0,WeatherDisplay:10.37,2013-09-25 20:28:00,
2013-09-25 12:33:00,47.3,46.2,29.49,West,271,2.3,2.3,96,0.00,OVC,,1.82,160.0,WeatherDisplay:10.37,2013-09-25 20:33:00,
2013-09-25 12:38:00,47.3,46.2,29.49,West,271,0.0,0.0,96,0.00,OVC,,1.82,144.0,WeatherDisplay:10.37,2013-09-25 20:38:00,
2013-09-25 12:43:00,47.4,46.0,29.48,West,271,0.0,0.0,95,0.00,OVC,,1.82,139.0,WeatherDisplay:10.37,2013-09-25 20:43:00,
2013-09-25 12:48:00,47.3,45.9,29.49,West,271,0.0,0.0,95,0.00,SCT,,1.82,128.0,WeatherDisplay:10.37,2013-09-25 20:48:00,
2013-09-25 12:53:00,47.3,45.9,29.49,West,271,1.2,1.2,95,0.00,SCT,,1.82,125.0,WeatherDisplay:10.37,2013-09-25 20:53:00,
2013-09-25 12:58:00,47.4,46.0,29.49,West,271,0.0,0.0,95,0.00,SCT,,1.82,74.0,WeatherDisplay:10.37,2013-09-25 20:58:00,
2013-09-25 13:03:00,47.5,46.1,29.49,West,271,2.0,2.0,95,0.00,BKN,,1.82,116.0,WeatherDisplay:10.37,2013-09-25 21:03:00,
2013-09-25 13:08:00,47.5,46.1,29.49,West,271,0.0,0.0,95,0.00,BKN,,1.82,102.0,WeatherDisplay:10.37,2013-09-25 21:08:00,
2013-09-25 13:13:00,47.6,46.2,29.49,West,271,0.0,0.0,95,0.00,BKN,,1.82,91.0,WeatherDisplay:10.37,2013-09-25 21:13:00,
2013-09-25 13:18:00,47.7,46.3,29.50,SSW,192,3.5,3.5,95,0.00,BKN,,1.82,97.0,WeatherDisplay:10.37,2013-09-25 21:18:00,
2013-09-25 13:23:00,47.7,46.3,29.50,SSW,192,2.0,2.0,95,0.00,BKN,,1.82,83.0,WeatherDisplay:10.37,2013-09-25 21:23:00,
2013-09-25 13:28:00,47.6,46.2,29.50,SSW,192,0.0,0.4,95,0.00,BKN,,1.82,102.0,WeatherDisplay:10.37,2013-09-25 21:28:00,
2013-09-25 13:33:00,47.7,46.3,29.50,SSW,192,1.2,1.2,95,0.00,BKN,,1.82,148.0,WeatherDisplay:10.37,2013-09-25 21:33:00,
2013-09-25 13:38:00,47.8,46.4,29.50,SSW,192,0.0,0.0,95,0.00,BKN,,1.82,223.0,WeatherDisplay:10.37,2013-09-25 21:38:00,
2013-09-25 13:43:00,48.0,46.6,29.50,SSW,192,2.3,2.3,95,0.00,BKN,,1.82,213.0,WeatherDisplay:10.37,2013-09-25 21:43:00,
2013-09-25 13:48:00,48.3,46.9,29.50,SSW,192,0.0,0.1,95,0.00,BKN,,1.82,220.0,WeatherDisplay:10.37,2013-09-25 21:48:00,
2013-09-25 13:53:00,48.6,47.5,29.50,SSW,192,1.2,1.2,96,0.00,BKN,,1.82,209.0,WeatherDisplay:10.37,2013-09-25 21:53:00,
2013-09-25 13:58:00,48.7,47.3,29.50,SSW,192,1.2,1.2,95,0.00,BKN,,1.82,197.0,WeatherDisplay:10.37,2013-09-25 21:58:00,
2013-09-25 14:03:00,48.9,47.2,29.50,SSW,192,3.5,3.5,94,0.00,BKN,,1.82,197.0,WeatherDisplay:10.37,2013-09-25 22:03:00,
2013-09-25 14:08:00,49.0,47.3,29.50,SSW,192,1.2,0.0,94,0.00,BKN,,1.82,220.0,WeatherDisplay:10.37,2013-09-25 22:08:00,
2013-09-25 14:13:00,49.3,47.6,29.50,SSW,192,2.3,2.3,94,0.00,BKN,,1.82,302.0,WeatherDisplay:10.37,2013-09-25 22:13:00,
2013-09-25 14:18:00,49.4,47.7,29.50,SSW,193,2.3,2.3,94,0.00,BKN,,1.82,246.0,WeatherDisplay:10.37,2013-09-25 22:18:00,
2013-09-25 14:23:00,49.6,47.4,29.50,SSW,193,3.0,3.0,92,0.00,BKN,,1.82,185.0,WeatherDisplay:10.37,2013-09-25 22:23:00,
2013-09-25 14:28:00,49.5,47.3,29.51,SSW,193,2.3,2.3,92,0.00,BKN,,1.82,216.0,WeatherDisplay:10.37,2013-09-25 22:28:00,
2013-09-25 14:33:00,49.5,46.7,29.51,SSW,193,2.3,2.3,90,0.00,BKN,,1.82,155.0,WeatherDisplay:10.37,2013-09-25 22:33:00,
2013-09-25 14:38:00,49.5,46.7,29.50,SSW,193,1.2,0.0,90,0.00,BKN,,1.82,139.0,WeatherDisplay:10.37,2013-09-25 22:38:00,
2013-09-25 14:43:00,49.5,47.0,29.50,SSW,193,1.2,1.2,91,0.00,BKN,,1.82,120.0,WeatherDisplay:10.37,2013-09-25 22:43:00,
2013-09-25 14:48:00,49.4,46.9,29.50,SSW,193,1.2,1.2,91,0.00,BKN,,1.82,141.0,WeatherDisplay:10.37,2013-09-25 22:48:00,
2013-09-25 14:53:00,49.4,47.2,29.51,SSW,193,1.2,1.2,92,0.00,BKN,,1.82,77.0,WeatherDisplay:10.37,2013-09-25 22:53:00,
2013-09-25 14:58:00,49.1,46.6,29.51,SSW,194,2.3,2.3,91,0.00,BKN,,1.82,72.0,WeatherDisplay:10.37,2013-09-25 22:58:00,
2013-09-25 15:03:00,49.0,46.5,29.51,SSW,194,1.2,1.2,91,0.00,OVC,,1.82,76.0,WeatherDisplay:10.37,2013-09-25 23:03:00,
2013-09-25 15:08:00,48.8,46.3,29.51,SSW,196,1.2,0.0,91,0.00,OVC,,1.82,77.0,WeatherDisplay:10.37,2013-09-25 23:08:00,
2013-09-25 15:13:00,48.7,46.5,29.51,SSW,196,1.2,0.0,92,0.00,OVC,,1.82,77.0,WeatherDisplay:10.37,2013-09-25 23:13:00,
2013-09-25 15:18:00,48.7,46.5,29.51,SSW,196,0.0,0.0,92,0.00,OVC,,1.82,102.0,WeatherDisplay:10.37,2013-09-25 23:18:00,
2013-09-25 15:23:00,48.8,46.6,29.51,SSW,196,0.0,0.0,92,0.00,OVC,,1.82,98.0,WeatherDisplay:10.37,2013-09-25 23:23:00,
2013-09-25 15:28:00,48.8,46.6,29.51,SSW,196,0.0,0.0,92,0.00,OVC,,1.82,84.0,WeatherDisplay:10.37,2013-09-25 23:28:00,
2013-09-25 15:34:00,48.8,46.6,29.52,SSW,196,0.0,0.0,92,0.00,OVC,,1.82,77.0,WeatherDisplay:10.37,2013-09-25 23:34:00,
2013-09-25 15:39:00,48.7,46.5,29.52,SSW,196,2.3,2.3,92,0.00,OVC,,1.82,77.0,WeatherDisplay:10.37,2013-09-25 23:39:00,
2013-09-25 15:44:00,48.7,46.5,29.52,SSW,196,3.5,3.5,92,0.00,OVC,,1.82,76.0,WeatherDisplay:10.37,2013-09-25 23:44:00,
2013-09-25 15:49:00,48.6,46.4,29.52,SSW,196,2.3,2.3,92,0.00,OVC,,1.82,95.0,WeatherDisplay:10.37,2013-09-25 23:49:00,
2013-09-25 15:54:00,48.6,46.7,29.52,SSW,196,2.3,2.3,93,0.00,OVC,,1.82,109.0,WeatherDisplay:10.37,2013-09-25 23:54:00,
2013-09-25 15:59:00,48.6,46.7,29.52,SE,129,3.5,3.5,93,0.00,OVC,,1.82,93.0,WeatherDisplay:10.37,2013-09-25 23:59:00,
2013-09-25 16:04:00,48.6,46.7,29.52,NNE,28,2.3,2.3,93,0.00,OVC,,1.82,86.0,WeatherDisplay:10.37,2013-09-26 00:04:00,
2013-09-25 16:09:00,48.5,46.6,29.52,NE,38,2.3,2.3,93,0.00,OVC,,1.82,74.0,WeatherDisplay:10.37,2013-09-26 00:09:00,
2013-09-25 16:14:00,48.5,46.6,29.52,NE,38,3.5,3.5,93,0.00,OVC,,1.82,63.0,WeatherDisplay:10.37,2013-09-26 00:14:00,
2013-09-25 16:19:00,48.4,46.5,29.52,NE,38,3.5,3.5,93,0.00,OVC,,1.82,47.0,WeatherDisplay:10.37,2013-09-26 00:19:00,
2013-09-25 16:24:00,48.4,46.5,29.52,NE,46,3.5,3.5,93,0.00,OVC,,1.82,51.0,WeatherDisplay:10.37,2013-09-26 00:24:00,
2013-09-25 16:29:00,48.4,46.5,29.53,NE,46,1.2,1.2,93,0.00,OVC,,1.82,65.0,WeatherDisplay:10.37,2013-09-26 00:29:00,
2013-09-25 16:34:00,48.4,46.8,29.52,NE,46,2.3,2.3,94,0.00,OVC,,1.82,86.0,WeatherDisplay:10.37,2013-09-26 00:34:00,
2013-09-25 16:39:00,48.5,46.9,29.52,NE,46,3.5,3.5,94,0.00,OVC,,1.82,86.0,WeatherDisplay:10.37,2013-09-26 00:39:00,
2013-09-25 16:44:00,48.5,46.9,29.52,NE,51,3.5,3.5,94,0.00,OVC,,1.82,69.0,WeatherDisplay:10.37,2013-09-26 00:44:00,
2013-09-25 16:49:00,48.5,46.6,29.52,NNE,12,5.0,5.0,93,0.00,OVC,,1.82,58.0,WeatherDisplay:10.37,2013-09-26 00:49:00,
2013-09-25 16:54:00,48.3,46.4,29.52,NE,54,3.0,3.0,93,0.00,OVC,,1.82,49.0,WeatherDisplay:10.37,2013-09-26 00:54:00,
2013-09-25 16:59:00,48.2,46.3,29.52,NE,36,3.0,3.0,93,0.00,OVC,,1.82,53.0,WeatherDisplay:10.37,2013-09-26 00:59:00,
2013-09-25 17:04:00,48.1,46.2,29.52,NE,55,1.2,1.2,93,0.00,-RA,,1.82,58.0,WeatherDisplay:10.37,2013-09-26 01:04:00,
2013-09-25 17:09:00,48.0,46.1,29.52,NE,55,2.3,2.3,93,0.00,-RA,,1.82,62.0,WeatherDisplay:10.37,2013-09-26 01:09:00,
2013-09-25 17:14:00,48.0,46.1,29.52,NE,55,2.3,2.3,93,0.00,-RA,,1.82,69.0,WeatherDisplay:10.37,2013-09-26 01:14:00,
2013-09-25 17:19:00,47.9,46.3,29.52,NNE,21,2.3,2.3,94,0.00,-RA,,1.82,67.0,WeatherDisplay:10.37,2013-09-26 01:19:00,
2013-09-25 17:24:00,47.9,46.3,29.52,NNE,21,0.0,0.0,94,0.00,-RA,,1.82,63.0,WeatherDisplay:10.37,2013-09-26 01:24:00,
2013-09-25 17:29:00,47.9,46.3,29.52,NNE,21,2.3,2.3,94,0.00,-RA,,1.82,60.0,WeatherDisplay:10.37,2013-09-26 01:29:00,
2013-09-25 17:34:00,47.9,46.3,29.52,NNE,22,1.2,1.2,94,0.00,-RA,,1.82,54.0,WeatherDisplay:10.37,2013-09-26 01:34:00,
2013-09-25 17:39:00,47.9,46.3,29.52,NNE,22,1.2,0.0,94,0.00,-RA,,1.82,56.0,WeatherDisplay:10.37,2013-09-26 01:39:00,
2013-09-25 17:44:00,47.9,46.3,29.52,NNE,22,2.3,2.3,94,0.00,-RA,,1.82,56.0,WeatherDisplay:10.37,2013-09-26 01:44:00,
2013-09-25 17:49:00,47.9,46.3,29.52,ENE,71,2.3,2.3,94,0.00,-RA,,1.82,53.0,WeatherDisplay:10.37,2013-09-26 01:49:00,
2013-09-25 17:54:00,47.9,46.3,29.52,East,88,3.0,3.0,94,0.00,-RA,,1.82,49.0,WeatherDisplay:10.37,2013-09-26 01:54:00,
2013-09-25 17:59:00,47.9,46.3,29.52,East,96,2.3,2.3,94,0.00,-RA,,1.82,47.0,WeatherDisplay:10.37,2013-09-26 01:59:00,
2013-09-25 18:04:00,47.8,46.2,29.52,East,95,4.6,4.6,94,0.00,-RA,,1.82,53.0,WeatherDisplay:10.37,2013-09-26 02:04:00,
2013-09-25 18:09:00,47.9,46.3,29.52,East,84,3.5,3.5,94,0.00,-RA,,1.82,53.0,WeatherDisplay:10.37,2013-09-26 02:09:00,
2013-09-25 18:14:00,47.9,46.3,29.52,ENE,71,5.8,5.8,94,0.00,-RA,,1.82,39.0,WeatherDisplay:10.37,2013-09-26 02:14:00,
2013-09-25 18:19:00,47.9,46.5,29.52,East,89,3.0,3.0,95,0.00,-RA,,1.82,51.0,WeatherDisplay:10.37,2013-09-26 02:19:00,
2013-09-25 18:24:00,48.0,46.6,29.51,East,82,4.6,4.6,95,0.00,-RA,,1.82,62.0,WeatherDisplay:10.37,2013-09-26 02:24:00,
2013-09-25 18:29:00,48.0,46.6,29.51,ENE,72,4.6,4.6,95,0.00,-RA,,1.82,60.0,WeatherDisplay:10.37,2013-09-26 02:29:00,
2013-09-25 18:34:00,48.0,46.6,29.51,East,92,4.6,4.6,95,0.00,-RA,,1.82,54.0,WeatherDisplay:10.37,2013-09-26 02:34:00,
2013-09-25 18:39:00,48.1,46.7,29.51,East,96,4.6,4.6,95,0.00,-RA,,1.82,49.0,WeatherDisplay:10.37,2013-09-26 02:39:00,
2013-09-25 18:44:00,48.1,46.7,29.51,ENE,61,3.5,3.5,95,0.00,-RA,,1.82,53.0,WeatherDisplay:10.37,2013-09-26 02:44:00,
2013-09-25 18:49:00,48.1,46.7,29.51,East,101,3.5,3.5,95,0.00,-RA,,1.82,47.0,WeatherDisplay:10.37,2013-09-26 02:49:00,
2013-09-25 18:54:00,48.1,46.7,29.51,East,89,4.6,4.6,95,0.00,-RA,,1.82,42.0,WeatherDisplay:10.37,2013-09-26 02:54:00,
2013-09-25 18:59:00,48.1,46.7,29.51,ESE,103,3.5,3.5,95,0.00,-RA,,1.82,39.0,WeatherDisplay:10.37,2013-09-26 02:59:00,
2013-09-25 19:04:00,48.0,46.6,29.52,ESE,103,1.2,1.2,95,0.00,-RA,,1.82,37.0,WeatherDisplay:10.37,2013-09-26 03:04:00,
2013-09-25 19:09:00,48.0,46.6,29.52,NE,49,3.0,3.0,95,0.00,-RA,,1.82,32.0,WeatherDisplay:10.37,2013-09-26 03:09:00,
2013-09-25 19:14:00,48.0,46.6,29.52,NE,49,2.0,2.0,95,0.00,-RA,,1.82,23.0,WeatherDisplay:10.37,2013-09-26 03:14:00,
2013-09-25 19:19:00,48.0,46.6,29.52,NNE,16,5.8,5.8,95,0.00,-RA,,1.82,21.0,WeatherDisplay:10.37,2013-09-26 03:19:00,
2013-09-25 19:24:00,47.9,46.5,29.52,NNE,16,2.3,2.3,95,0.00,-RA,,1.82,19.0,WeatherDisplay:10.37,2013-09-26 03:24:00,
2013-09-25 19:29:00,47.8,46.4,29.52,NNE,16,2.3,2.3,95,0.00,-RA,,1.82,18.0,WeatherDisplay:10.37,2013-09-26 03:29:00,
2013-09-25 19:34:00,47.8,46.4,29.52,NNE,17,2.3,2.3,95,0.01,RA,,1.83,14.0,WeatherDisplay:10.37,2013-09-26 03:34:00,
2013-09-25 19:39:00,47.7,46.3,29.52,NE,55,2.3,2.3,95,0.01,RA,,1.83,11.0,WeatherDisplay:10.37,2013-09-26 03:39:00,
2013-09-25 19:44:00,47.7,46.3,29.52,NE,38,3.5,3.5,95,0.01,OVC,,1.83,7.0,WeatherDisplay:10.37,2013-09-26 03:44:00,
2013-09-25 19:49:00,47.6,46.2,29.52,NE,53,3.5,3.5,95,0.01,OVC,,1.83,7.0,WeatherDisplay:10.37,2013-09-26 03:49:00,
2013-09-25 19:54:00,47.6,46.2,29.52,NE,46,3.5,3.5,95,0.01,OVC,,1.83,5.0,WeatherDisplay:10.37,2013-09-26 03:54:00,
2013-09-25 19:59:00,47.5,46.1,29.52,ENE,70,2.0,2.0,95,0.01,OVC,,1.83,0.0,WeatherDisplay:10.37,2013-09-26 03:59:00,
2013-09-25 20:01:00,47.5,46.1,29.52,ENE,70,3.5,3.5,95,0.02,RA,,1.84,0.0,WeatherDisplay:10.37,2013-09-26 04:01:00,
2013-09-25 20:02:00,47.5,46.1,29.52,ENE,70,2.3,2.3,95,0.02,RA,,1.84,0.0,WeatherDisplay:10.37,2013-09-26 04:02:00,
2013-09-25 20:07:00,47.4,46.0,29.52,NE,44,4.6,4.6,95,0.02,RA,,1.84,0.0,WeatherDisplay:10.37,2013-09-26 04:07:00,
2013-09-25 20:12:00,47.4,46.0,29.52,ENE,76,3.5,3.5,95,0.02,OVC,,1.84,0.0,WeatherDisplay:10.37,2013-09-26 04:12:00,
2013-09-25 20:17:00,47.3,45.9,29.52,NE,53,3.0,3.0,95,0.02,OVC,,1.84,0.0,WeatherDisplay:10.37,2013-09-26 04:17:00,
2013-09-25 20:22:00,47.3,46.2,29.52,ENE,59,5.8,5.8,96,0.02,OVC,,1.84,0.0,WeatherDisplay:10.37,2013-09-26 04:22:00,
2013-09-25 20:27:00,47.2,46.1,29.53,NE,40,4.6,4.6,96,0.02,OVC,,1.84,0.0,WeatherDisplay:10.37,2013-09-26 04:27:00,
2013-09-25 20:32:00,47.2,46.1,29.53,East,88,2.3,0.0,96,0.01,OVC,,1.84,0.0,WeatherDisplay:10.37,2013-09-26 04:32:00,
2013-09-25 20:37:00,47.2,46.1,29.53,East,87,2.3,2.3,96,0.01,OVC,,1.84,0.0,WeatherDisplay:10.37,2013-09-26 04:37:00,
2013-09-25 20:42:00,47.2,46.1,29.53,ENE,77,3.5,3.5,96,0.01,OVC,,1.84,0.0,WeatherDisplay:10.37,2013-09-26 04:42:00,
2013-09-25 20:47:00,47.2,46.1,29.53,NE,51,3.5,3.5,96,0.01,OVC,,1.84,0.0,WeatherDisplay:10.37,2013-09-26 04:47:00,
2013-09-25 20:52:00,47.2,46.1,29.53,NE,38,3.5,3.5,96,0.01,OVC,,1.84,0.0,WeatherDisplay:10.37,2013-09-26 04:52:00,
2013-09-25 20:57:00,47.2,46.1,29.53,NE,40,3.5,3.5,96,0.01,OVC,,1.84,0.0,WeatherDisplay:10.37,2013-09-26 04:57:00,
2013-09-25 21:02:00,47.2,46.1,29.53,ENE,57,3.5,3.5,96,0.00,-RA,,1.84,0.0,WeatherDisplay:10.37,2013-09-26 05:02:00,
2013-09-25 21:07:00,47.2,46.1,29.53,NNE,20,1.2,0.0,96,0.00,-RA,,1.84,0.0,WeatherDisplay:10.37,2013-09-26 05:07:00,
2013-09-25 21:12:00,47.1,46.0,29.53,East,83,2.0,2.0,96,0.00,-RA,,1.84,0.0,WeatherDisplay:10.37,2013-09-26 05:12:00,
2013-09-25 21:17:00,47.1,46.0,29.54,NE,36,3.5,3.5,96,0.00,-RA,,1.84,0.0,WeatherDisplay:10.37,2013-09-26 05:17:00,
2013-09-25 21:22:00,47.1,46.0,29.53,ENE,68,3.5,3.5,96,0.00,-RA,,1.84,0.0,WeatherDisplay:10.37,2013-09-26 05:22:00,
2013-09-25 21:27:00,47.1,46.0,29.53,East,98,5.0,5.0,96,0.00,-RA,,1.84,0.0,WeatherDisplay:10.37,2013-09-26 05:27:00,
2013-09-25 21:32:00,47.2,46.1,29.54,ENE,66,2.3,2.3,96,0.00,-RA,,1.85,0.0,WeatherDisplay:10.37,2013-09-26 05:32:00,
2013-09-25 21:37:00,47.2,46.1,29.54,NE,55,2.0,2.0,96,0.01,-RA,,1.85,0.0,WeatherDisplay:10.37,2013-09-26 05:37:00,
2013-09-25 21:42:00,47.2,46.1,29.54,ENE,63,1.2,1.2,96,0.01,-RA,,1.85,0.0,WeatherDisplay:10.37,2013-09-26 05:42:00,
2013-09-25 21:47:00,47.2,46.1,29.54,NNE,21,3.5,3.5,96,0.01,-RA,,1.85,0.0,WeatherDisplay:10.37,2013-09-26 05:47:00,
2013-09-25 21:52:00,47.3,46.2,29.54,East,89,2.3,2.3,96,0.01,-RA,,1.85,0.0,WeatherDisplay:10.37,2013-09-26 05:52:00,
2013-09-25 21:58:00,47.3,46.2,29.54,ENE,57,3.5,3.5,96,0.01,-RA,,1.85,0.0,WeatherDisplay:10.37,2013-09-26 05:58:00,
2013-09-25 22:03:00,47.4,46.3,29.54,NE,56,2.3,2.3,96,0.01,-RA,,1.85,0.0,WeatherDisplay:10.37,2013-09-26 06:03:00,
2013-09-25 22:08:00,47.4,46.3,29.54,NE,51,2.0,2.0,96,0.01,-RA,,1.85,0.0,WeatherDisplay:10.37,2013-09-26 06:08:00,
2013-09-25 22:13:00,47.3,46.2,29.54,NE,35,3.5,3.5,96,0.01,-RA,,1.85,0.0,WeatherDisplay:10.37,2013-09-26 06:13:00,
2013-09-25 22:18:00,47.3,46.2,29.54,ENE,61,3.5,3.5,96,0.01,-RA,,1.85,0.0,WeatherDisplay:10.37,2013-09-26 06:18:00,
2013-09-25 22:23:00,47.3,46.2,29.54,ENE,69,3.5,3.5,96,0.01,-RA,,1.85,0.0,WeatherDisplay:10.37,2013-09-26 06:23:00,
2013-09-25 22:28:00,47.3,46.2,29.54,East,92,3.5,3.5,96,0.01,-RA,,1.85,0.0,WeatherDisplay:10.37,2013-09-26 06:28:00,
2013-09-25 22:33:00,47.3,46.5,29.55,NE,46,0.0,0.2,97,0.01,-RA,,1.85,0.0,WeatherDisplay:10.37,2013-09-26 06:33:00,
2013-09-25 22:38:00,47.3,46.5,29.55,ENE,58,3.5,3.5,97,0.00,-RA,,1.85,0.0,WeatherDisplay:10.37,2013-09-26 06:38:00,
2013-09-25 22:43:00,47.3,46.5,29.55,East,95,3.5,3.5,97,0.00,-RA,,1.85,0.0,WeatherDisplay:10.37,2013-09-26 06:43:00,
2013-09-25 22:48:00,47.3,46.5,29.55,NE,38,3.5,3.5,97,0.00,-RA,,1.85,0.0,WeatherDisplay:10.37,2013-09-26 06:48:00,
2013-09-25 22:53:00,47.3,46.5,29.55,NE,44,2.3,2.3,97,0.00,-RA,,1.85,0.0,WeatherDisplay:10.37,2013-09-26 06:53:00,
2013-09-25 22:58:00,47.3,46.5,29.55,ENE,71,2.3,2.3,97,0.00,-RA,,1.85,0.0,WeatherDisplay:10.37,2013-09-26 06:58:00,
2013-09-25 23:03:00,47.2,46.4,29.55,ENE,61,3.5,3.5,97,0.01,-RA,,1.86,0.0,WeatherDisplay:10.37,2013-09-26 07:03:00,
2013-09-25 23:08:00,47.1,46.3,29.55,NE,44,3.5,3.5,97,0.01,-RA,,1.86,0.0,WeatherDisplay:10.37,2013-09-26 07:08:00,
2013-09-25 23:13:00,47.1,46.0,29.55,NE,44,3.5,3.5,96,0.01,-RA,,1.86,0.0,WeatherDisplay:10.37,2013-09-26 07:13:00,
2013-09-25 23:18:00,47.0,46.2,29.55,NE,44,3.5,3.5,97,0.01,-RA,,1.86,0.0,WeatherDisplay:10.37,2013-09-26 07:18:00,
2013-09-25 23:23:00,47.0,46.2,29.55,NE,39,3.5,3.5,97,0.01,-RA,,1.86,0.0,WeatherDisplay:10.37,2013-09-26 07:23:00,
2013-09-25 23:28:00,46.9,45.8,29.55,NNE,25,2.3,2.3,96,0.01,-RA,,1.86,0.0,WeatherDisplay:10.37,2013-09-26 07:28:00,
2013-09-25 23:33:00,46.8,45.7,29.55,NE,45,3.5,3.5,96,0.01,-RA,,1.86,0.0,WeatherDisplay:10.37,2013-09-26 07:33:00,
2013-09-25 23:38:00,46.8,45.7,29.55,ESE,107,1.2,1.2,96,0.01,-RA,,1.86,0.0,WeatherDisplay:10.37,2013-09-26 07:38:00,
2013-09-25 23:43:00,46.8,46.0,29.55,NE,42,3.5,3.5,97,0.01,-RA,,1.86,0.0,WeatherDisplay:10.37,2013-09-26 07:43:00,
2013-09-25 23:48:00,46.8,46.0,29.55,NE,36,2.3,2.3,97,0.01,-RA,,1.86,0.0,WeatherDisplay:10.37,2013-09-26 07:48:00,
2013-09-25 23:53:00,46.8,46.0,29.55,NNE,13,4.6,4.6,97,0.01,-RA,,1.86,0.0,WeatherDisplay:10.37,2013-09-26 07:53:00,
2013-09-25 23:58:00,46.8,46.0,29.55,East,84,3.5,3.5,97,0.01,-RA,,1.86,0.0,WeatherDisplay:10.37,2013-09-26 07:58:00,